Torna al catalogo

CZ-6A DEB

AttivoSSO
NORAD 54409·DEBRIS·🇨🇳 China

Lanciato Nov 11, 2022 da Taiyuan Satellite Launch Center

Loading…

Prossimi Passaggi (prossime 24 ore)

TLE

AggiornatoSource: Space-Track

Epoca: Sep 14, 2026, 10:35 UTC

1 54409U 22151EH  26257.44149715  .00001744  00000-0  72076-3 0  9991
2 54409  98.7552 258.2352 0134002 299.7995  58.9913 14.23257866198341

Traccia CZ-6A DEB in tempo reale con AllMySat

Download on the App Store